Regional Weather Roundup
Issued by NWS State College, PA

Home | Current Version | Previous Version | Graphics & Text | Print | Product List | Glossary On
Versions: 1 2 3 4 5 6 7 8 9 10 11 12 13 14 15 16 17 18 19 20 21 22 23 24 25 26 27 28 29 30 31 32 33 34 35 36 37 38 39 40 41 42 43 44 45 46 47 48 49 50
000
ASUS41 KCTP 251203
RWRCTP

REGIONAL WEATHER ROUNDUP
NATIONAL WEATHER SERVICE STATE COLLEGE PA
800 AM EDT MON MAY 25 2015

Note: "fair" indicates few or no clouds below 12,000 feet with no
significant weather and/or obstructions to visibility.

* = STATION THAT DOES NOT REPORT PRECIPITATION /E.G. RAIN...SNOW...ETC/
    THUNDER OR FOG.

PAZ002>004-007>009-013>016-020>023-029>032-251300-
WESTERN PENNSYLVANIA

CITY           SKY/WX    TMP DP  RH WIND       PRES   REMARKS
ERIE           MOSUNNY   69  49  48 S14       30.12R
MEADVILLE      SUNNY     65  50  58 S8        30.17R
FRANKLIN*      SUNNY     63  50  63 S8        30.20S
NEW CASTLE     FAIR      66  55  67 CALM      30.19R
BEAVER COUNTY  NOT AVBL
BUTLER*        MOSUNNY   66  52  59 SW8       30.22R
PITTSBURGH INT PTSUNNY   68  51  54 S7        30.19R
PITTSBURGH     SUNNY     65  49  56 S12       30.20R
INDIANA*       SUNNY     64  55  72 CALM      30.26R
LATROBE        MOSUNNY   63  57  82 CALM      30.23S
WASHINGTON CO* SUNNY     64  54  68 CALM      30.23R
$$

PAZ004>006-010>012-017>019-024>028-033>037-041-042-045-046-049>053-251300-
CENTRAL PENNSYLVANIA

CITY           SKY/WX    TMP DP  RH WIND       PRES   REMARKS
BRADFORD       MOSUNNY   64  49  57 S7        30.23R
DUBOIS         SUNNY     67  51  56 SW7       30.22R
CLEARFIELD     SUNNY     59  50  72 CALM      30.24S
JOHNSTOWN      SUNNY     65  49  56 S9        30.25S
ALTOONA        SUNNY     64  52  64 CALM      30.25S
STATE COLLEGE  SUNNY     61  52  72 CALM      30.25R
WILLIAMSPORT   MOSUNNY   63  53  70 CALM      30.23R
SELINSGROVE    SUNNY     66  56  70 CALM      30.25R
FT INDIANTOWN  SUNNY     65  59  80 E1        30.27R HAZE
CAPITAL CITY   SUNNY     67  57  70 CALM      30.26R
HARRISBURG     SUNNY     68  58  70 E3        30.26R
YORK           SUNNY     67  58  72 CALM      30.26R
$$

PAZ038>040-043-044-047-048-054-055-060>062-067>071-251300-
EASTERN PENNSYLVANIA

CITY           SKY/WX    TMP DP  RH WIND       PRES   REMARKS
SCRANTON       CLOUDY    68  55  63 CALM      30.24R
MOUNT POCONO   CLOUDY    65  54  67 SW6       30.28R
ALLENTOWN      CLOUDY    65  57  75 CALM      30.27R
QUAKERTOWN*    PTSUNNY   64  59  82 S3        30.29R
READING        MOSUNNY   68  58  70 CALM      30.26R
LANCASTER      SUNNY     66  61  84 CALM      30.27R
COATESVILLE    SUNNY     64  61  88 SW3       30.29R
POTTSTOWN      MOSUNNY   64  59  83 CALM      30.29R
BLUE BELL      MOSUNNY   66  59  77 CALM      30.28R
DOYLESTOWN     MOSUNNY   62  57  83 CALM      30.27R
WILLOW GROVE   NOT AVBL
NORTH PHILA    SUNNY     67  56  67 SW5       30.30R
PHILADELPHIA   MOSUNNY   69  59  70 S8        30.28R
$$


USA.gov is the U.S. government's official web portal to all federal, state and local government web resources and services.